Latest Coastal Weather Observations for Esperance Harbour

IDW60701

Issued at 10:33 am WST Friday 1 July 2016 (issued every 10 minutes, with the page automatically refreshed every 10 minutes)

About coastal observations | Map of coastal stations | Coastal observations for WA | Marine services | Other Formats
Station Details ID: 109504 Name: ESPERANCE NTC AWS Lat: -33.87 Lon: 121.90 Height: 0.0 m
Data from the previous 72 hours. | See also: Recent months for locations in Western Australia
Date/Time
WST
Temp
°C
Wind Pressure Rain since
9am
mm
Weather Cloud Vis
km
Sea
Height
m
Swell
Dir  Spd
kts
Gust
kts
hPa Trend Height
m
Period
s
Dir
01/10:30am 14.0 - - - 1028.5 - - - - - - - - -
01/10:00am 12.9 - - - 1028.4 - - - - - - - - -
01/09:30am 11.6 - - - 1028.6 - - - - - - - - -
01/09:00am 10.4 - - - 1028.5 - - - - - - - - -
01/08:30am 9.2 - - - 1028.5 - - - - - - - - -
01/08:00am 8.3 - - - 1028.0 - - - - - - - - -
01/07:30am 8.0 - - - 1027.8 - - - - - - - - -
01/07:00am 7.8 - - - 1027.5 - - - - - - - - -
01/06:30am 7.7 - - - 1027.2 - - - - - - - - -
01/06:00am 7.9 - - - 1027.0 - - - - - - - - -
01/05:30am 8.1 - - - 1026.8 - - - - - - - - -
01/05:00am 8.3 - - - 1026.5 - - - - - - - - -
01/04:30am 8.3 - - - 1026.5 - - - - - - - - -
01/04:00am 8.9 - - - 1026.3 - - - - - - - - -
01/03:30am 8.8 - - - 1026.2 - - - - - - - - -
01/03:00am 8.7 - - - 1026.3 - - - - - - - - -
01/02:30am 8.7 - - - 1026.4 - - - - - - - - -
01/02:00am 9.0 - - - 1026.5 - - - - - - - - -
01/01:30am 9.4 - - - 1026.5 - - - - - - - - -
01/01:00am 9.3 - - - 1026.3 - - - - - - - - -
01/12:30am 9.4 - - - 1026.3 - - - - - - - - -
01/12:00am 9.6 - - - 1026.2 - - - - - - - - -
 
Date/Time
WST
Temp
°C
Wind Pressure Rain since
9am
mm
Weather Cloud Vis
km
Sea
Height
m
Swell
Dir  Spd
kts
Gust
kts
hPa Trend Height
m
Period
s
Dir
30/11:30pm 10.0 - - - 1026.5 - - - - - - - - -
30/11:00pm 9.9 - - - 1026.5 - - - - - - - - -
30/10:30pm 10.1 - - - 1026.6 - - - - - - - - -
30/10:00pm 10.4 - - - 1026.6 - - - - - - - - -
30/09:30pm 10.9 - - - 1026.4 - - - - - - - - -
30/09:00pm 11.4 - - - 1026.2 - - - - - - - - -
30/08:30pm 11.5 - - - 1026.1 - - - - - - - - -
30/08:00pm 12.1 - - - 1025.8 - - - - - - - - -
30/07:30pm 12.7 - - - 1025.6 - - - - - - - - -
30/07:00pm 13.1 - - - 1025.2 - - - - - - - - -
30/06:30pm 13.2 - - - 1025.0 - - - - - - - - -
30/06:00pm 13.5 - - - 1024.6 - - - - - - - - -
30/05:30pm 13.8 - - - 1024.1 - - - - - - - - -
30/05:00pm 14.6 - - - 1023.9 - - - - - - - - -
30/04:30pm 15.2 - - - 1023.8 - - - - - - - - -
30/04:00pm 15.8 - - - 1023.6 - - - - - - - - -
30/03:30pm 15.1 - - - 1023.5 - - - - - - - - -
30/03:00pm 15.9 - - - 1023.4 - - - - - - - - -
30/02:30pm 15.3 - - - 1023.2 - - - - - - - - -
30/02:00pm 15.2 - - - 1023.0 - - - - - - - - -
30/01:30pm 14.8 - - - 1023.2 - - - - - - - - -
30/01:00pm 14.8 - - - 1023.3 - - - - - - - - -
30/12:30pm 15.3 - - - 1023.4 - - - - - - - - -
30/12:00pm 15.4 - - - 1023.6 - - - - - - - - -
30/11:30am 15.4 - - - 1023.9 - - - - - - - - -
30/11:00am 14.4 - - - 1024.3 - - - - - - - - -
30/10:30am 13.3 - - - 1024.6 - - - - - - - - -
30/10:00am 13.1 - - - 1024.6 - - - - - - - - -
30/09:30am 11.9 - - - 1024.7 - - - - - - - - -
30/09:00am 11.4 - - - 1024.7 - - - - - - - - -
30/08:30am 10.0 - - - 1024.2 - - - - - - - - -
30/08:00am 9.8 - - - 1023.9 - - - - - - - - -
30/07:30am 9.2 - - - 1023.6 - - - - - - - - -
30/07:00am 9.4 - - - 1023.2 - - - - - - - - -
30/06:30am 9.8 - - - 1022.9 - - - - - - - - -
30/06:00am 9.6 - - - 1022.6 - - - - - - - - -
30/05:30am 10.0 - - - 1022.4 - - - - - - - - -
30/05:00am 10.0 - - - 1022.2 - - - - - - - - -
30/04:30am 10.3 - - - 1021.9 - - - - - - - - -
30/04:00am 10.2 - - - 1021.7 - - - - - - - - -
30/03:30am 10.3 - - - 1021.7 - - - - - - - - -
30/03:00am 10.8 - - - 1021.7 - - - - - - - - -
30/02:30am 11.3 - - - 1021.7 - - - - - - - - -
30/02:00am 11.2 - - - 1021.9 - - - - - - - - -
30/01:30am 11.2 - - - 1021.4 - - - - - - - - -
30/01:00am 11.4 - - - 1021.2 - - - - - - - - -
30/12:30am 11.9 - - - 1020.9 - - - - - - - - -
30/12:00am 12.3 - - - 1021.0 - - - - - - - - -
 
Date/Time
WST
Temp
°C
Wind Pressure Rain since
9am
mm
Weather Cloud Vis
km
Sea
Height
m
Swell
Dir  Spd
kts
Gust
kts
hPa Trend Height
m
Period
s
Dir
29/11:30pm 12.5 - - - 1020.9 - - - - - - - - -
29/11:00pm 13.3 - - - 1020.6 - - - - - - - - -
29/10:30pm 14.9 - - - 1020.4 - - - - - - - - -
29/10:00pm 14.3 - - - 1020.2 - - - - - - - - -
29/09:30pm 14.1 - - - 1020.1 - - - - - - - - -
29/09:00pm 14.9 - - - 1020.0 - - - - - - - - -
29/08:30pm 15.2 - - - 1019.5 - - - - - - - - -
29/08:00pm 15.0 - - - 1019.3 - - - - - - - - -
29/07:30pm 14.8 - - - 1018.9 - - - - - - - - -
29/07:00pm 14.7 - - - 1018.8 - - - - - - - - -
29/06:30pm 14.6 - - - 1018.4 - - - - - - - - -
29/06:00pm 14.5 - - - 1017.9 - - - - - - - - -
29/05:30pm 14.3 - - - 1017.7 - - - - - - - - -
29/05:00pm 14.1 - - - 1017.1 - - - - - - - - -
29/04:30pm 15.2 - - - 1016.5 - - - - - - - - -
29/04:00pm 15.9 - - - 1016.1 - - - - - - - - -
29/03:30pm 16.0 - - - 1015.4 - - - - - - - - -
29/03:00pm 16.4 - - - 1014.9 - - - - - - - - -
29/02:30pm 16.1 - - - 1014.7 - - - - - - - - -
29/02:00pm 15.9 - - - 1014.2 - - - - - - - - -
29/01:30pm 15.9 - - - 1014.1 - - - - - - - - -
29/01:00pm 15.8 - - - 1013.8 - - - - - - - - -
29/12:30pm 16.4 - - - 1013.8 - - - - - - - - -
29/12:00pm 15.9 - - - 1013.9 - - - - - - - - -
29/11:30am 16.1 - - - 1014.0 - - - - - - - - -
29/11:00am 15.8 - - - 1014.1 - - - - - - - - -
29/10:30am 15.3 - - - 1014.0 - - - - - - - - -
29/10:00am 15.1 - - - 1014.1 - - - - - - - - -
29/09:30am 14.9 - - - 1013.9 - - - - - - - - -
29/09:00am 14.9 - - - 1013.6 - - - - - - - - -
29/08:30am 14.5 - - - 1013.2 - - - - - - - - -
29/08:00am 13.9 - - - 1013.0 - - - - - - - - -
29/07:30am 13.5 - - - 1012.7 - - - - - - - - -
29/07:00am 13.6 - - - 1012.4 - - - - - - - - -
29/06:30am 13.8 - - - 1012.0 - - - - - - - - -
29/06:00am 14.1 - - - 1011.6 - - - - - - - - -
29/05:30am 14.2 - - - 1011.3 - - - - - - - - -
29/05:00am 14.0 - - - 1010.9 - - - - - - - - -
29/04:30am 13.9 - - - 1010.8 - - - - - - - - -
29/04:00am 13.9 - - - 1010.7 - - - - - - - - -
29/03:30am 13.7 - - - 1010.7 - - - - - - - - -
29/03:00am 13.8 - - - 1010.8 - - - - - - - - -
29/02:30am 13.9 - - - 1010.5 - - - - - - - - -
29/02:00am 14.1 - - - 1010.6 - - - - - - - - -
29/01:30am 14.3 - - - 1010.4 - - - - - - - - -
29/01:00am 14.3 - - - 1010.5 - - - - - - - - -
29/12:30am 14.5 - - - 1010.5 - - - - - - - - -
29/12:00am 14.8 - - - 1010.4 - - - - - - - - -
 
Date/Time
WST
Temp
°C
Wind Pressure Rain since
9am
mm
Weather Cloud Vis
km
Sea
Height
m
Swell
Dir  Spd
kts
Gust
kts
hPa Trend Height
m
Period
s
Dir
28/11:30pm 15.3 - - - 1010.4 - - - - - - - - -
28/11:00pm 15.4 - - - 1010.6 - - - - - - - - -
28/10:30pm 15.9 - - - 1010.5 - - - - - - - - -
28/10:00pm 16.0 - - - 1010.6 - - - - - - - - -
28/09:30pm 15.9 - - - 1011.0 - - - - - - - - -
28/09:00pm 16.2 - - - 1011.4 - - - - - - - - -
28/08:30pm 16.0 - - - 1011.5 - - - - - - - - -
28/08:00pm 15.8 - - - 1011.5 - - - - - - - - -
28/07:30pm 15.5 - - - 1011.5 - - - - - - - - -
28/07:00pm 15.7 - - - 1011.5 - - - - - - - - -
28/06:30pm 15.7 - - - 1011.6 - - - - - - - - -
28/06:00pm 16.2 - - - 1011.5 - - - - - - - - -
28/05:30pm 16.9 - - - 1011.4 - - - - - - - - -
28/05:00pm 17.4 - - - 1011.3 - - - - - - - - -
28/04:30pm 17.9 - - - 1011.3 - - - - - - - - -
28/04:00pm 18.8 - - - 1010.9 - - - - - - - - -
28/03:30pm 18.8 - - - 1011.0 - - - - - - - - -
28/03:00pm 18.5 - - - 1011.0 - - - - - - - - -
28/02:30pm 18.0 - - - 1010.9 - - - - - - - - -
28/02:00pm 18.1 - - - 1011.0 - - - - - - - - -
28/01:30pm 17.9 - - - 1011.2 - - - - - - - - -
28/01:00pm 17.6 - - - 1011.6 - - - - - - - - -
28/12:30pm 17.2 - - - 1012.1 - - - - - - - - -
28/12:00pm 16.8 - - - 1012.7 - - - - - - - - -
28/11:30am 16.1 - - - 1013.4 - - - - - - - - -
28/11:00am 15.5 - - - 1014.0 - - - - - - - - -

Other Formats:

Comma delimited format used in spreadsheet applications
http://www.bom.gov.au/fwo/IDW60701/IDW60701.95648.axf

JavaScript Object Notation format (JSON) in row-major order
http://www.bom.gov.au/fwo/IDW60701/IDW60701.95648.json